User: anonymous
Location: Fairmont
(43.6520°N, 94.4610°W)
Time: 09:29:17
(UTC-05:00)
Language:

Cosmos-2242 - Orbit

View from above orbital plane
View from above orbital plane
View from above satellite
View from above satellite

Ground track
Ground track

The orbit data is extracted from the following two-line orbital elements,

1 22626U 93024A   14274.48106684  .00001822  00000-0  20462-3 0  2219
2 22626 082.5211 254.1166 0020673 159.3568 200.8489 14.86079325159055
Epoch (UTC): 01 October 2014 11:32:44
Eccentricity: 0.0020673
inclination: 82.5211°
perigee height: 596 km
apogee height: 624 km
right ascension of ascending node: 254.1166°
argument of perigee: 159.3568°
revolutions per day: 14.86079325
mean anomaly at epoch: 200.8489°
orbit number at epoch: 15905

The dashed part of the orbit path shows where the satellite is in the earth's shadow,  

DLR